Theta_e
321 321 319 317 316 317 317 316 315 314 314 314 314 315 315 317 315 314 315 316 318 318 323 323 323 322 324 318 318 321 320 320 314 314 315 318 321 321 322 321 323 316 320 320 319 323 325 325 326 326 324 329 330 334
320 320 317 316 316 316 316 315 314 313 314 312 313 315 315 317 316 315 316 315 315 317 319 321 319 319 324 321 321 319 320 321 320 316 315 316 319 318 316 318 318 320 318 320 319 319 320 326 325 327 329 330 332 333
320 320 317 316 315 315 316 314 313 313 314 313 313 313 314 317 317 315 316 314 314 320 322 318 315 322 323 319 318 321 324 323 322 321 318 317 319 314 318 318 322 321 318 320 318 318 323 326 326 328 328 327 327 328
319 316 315 315 315 314 316 313 313 314 314 313 314 313 313 315 318 316 316 315 316 320 321 321 320 323 322 320 319 319 322 323 322 320 317 310 313 316 315 318 319 320 318 319 319 323 324 326 326 327 330 325 324 325
318 317 317 316 315 314 315 313 313 314 315 314 314 314 312 314 317 317 317 315 315 316 321 324 323 322 321 320 319 320 319 320 320 318 313 313 314 318 314 314 314 320 316 319 321 323 324 326 325 325 327 326 324 324
318 317 315 315 315 315 315 312 312 315 314 315 314 313 311 313 316 317 316 316 311 315 318 321 325 323 321 320 320 320 320 321 322 322 319 323 323 319 316 316 319 323 323 321 323 323 324 325 323 324 324 327 328 326
313 315 315 315 315 314 313 312 313 315 314 315 313 311 311 313 317 315 313 314 312 313 319 324 323 323 322 321 321 321 322 322 322 322 321 322 320 318 312 315 322 325 326 326 325 324 325 324 323 322 322 324 325 325
307 308 311 314 314 313 312 312 313 315 315 314 312 312 312 315 317 315 317 314 314 317 322 321 320 322 321 321 321 321 321 322 322 321 322 320 322 317 313 316 322 323 326 326 327 325 325 325 325 324 322 323 323 322
306 307 312 313 313 312 312 311 315 315 315 314 314 314 314 315 315 314 314 315 317 316 321 320 320 321 323 321 321 322 322 318 321 317 317 320 312 314 317 320 320 321 322 325 325 324 324 323 322 322 322 322 322 321
308 311 311 311 312 311 311 311 315 316 313 309 308 311 311 312 312 317 314 318 318 318 319 322 323 320 323 320 320 322 322 317 320 319 320 318 317 322 323 321 321 320 322 323 321 320 320 322 322 321 320 320 320 320
309 311 311 312 311 311 310 311 315 315 310 308 315 318 320 314 319 319 318 317 317 317 318 320 323 320 323 321 318 323 319 319 320 319 320 317 317 319 323 323 322 320 320 322 322 321 320 319 319 320 317 317 317 317
308 310 312 311 310 310 310 311 315 314 309 310 316 320 319 320 320 319 318 317 315 315 316 319 318 321 324 326 323 323 323 320 320 317 318 319 315 322 321 322 322 317 319 320 321 320 319 319 317 317 316 317 316 316
309 311 311 309 310 310 310 311 313 314 311 313 318 318 318 317 315 320 319 317 315 317 315 317 320 322 324 324 324 322 325 323 318 319 320 317 320 321 322 322 321 318 320 320 319 318 317 317 317 317 317 316 317 316
310 311 311 310 310 310 309 312 312 313 311 314 317 314 318 318 316 316 316 316 319 321 321 316 321 322 322 321 321 324 323 318 320 320 319 314 322 322 321 321 321 318 319 319 318 317 317 317 317 317 315 315 316 317
310 311 311 309 309 310 311 312 312 313 311 314 316 317 317 316 317 317 317 318 320 322 322 315 318 324 319 322 321 322 323 323 319 319 315 320 321 321 322 321 319 318 319 318 318 317 317 317 317 317 316 315 317 317
310 310 310 309 309 310 311 311 311 312 312 314 315 316 316 315 316 318 320 320 321 322 321 320 315 319 321 319 320 322 322 322 318 315 321 321 321 322 322 321 318 317 318 318 317 317 317 317 318 318 316 317 318 317
309 309 309 310 311 311 310 310 311 312 314 313 314 314 314 315 315 317 318 319 319 321 321 322 323 321 318 321 320 319 319 316 320 321 321 323 323 323 323 322 318 317 318 318 317 317 317 317 318 317 316 317 318 317
309 310 310 310 311 310 309 310 311 312 313 313 312 313 313 314 315 315 317 319 319 321 322 323 322 323 324 324 321 317 320 321 321 322 322 323 323 323 323 322 318 318 318 318 318 318 318 318 318 318 318 316 317 316
309 310 310 311 310 310 309 309 310 312 313 312 312 312 313 315 314 315 318 319 319 319 320 321 322 323 322 320 322 324 321 322 322 323 324 323 323 322 322 320 319 320 320 320 319 319 319 319 319 319 318 317 317 316
310 310 309 310 310 310 311 311 310 311 313 314 315 316 316 315 316 318 318 318 318 320 321 322 322 323 324 324 324 324 325 326 325 324 323 323 322 321 320 321 321 321 321 323 323 324 324 321 319 319 318 318 316 316
308 309 310 310 310 310 311 311 313 312 314 315 316 315 316 317 316 316 317 319 321 321 321 321 320 321 322 323 324 325 325 327 326 325 324 324 322 322 322 323 324 324 325 324 324 323 324 324 322 320 318 317 316 316
308 309 310 309 310 311 311 311 312 313 315 316 317 317 318 318 318 320 319 321 321 321 321 321 322 322 322 321 324 324 325 325 326 326 325 324 323 325 327 326 325 326 326 326 327 326 325 323 322 320 318 317 316 316
309 310 310 310 310 311 312 313 315 316 316 318 319 318 317 318 319 321 321 321 320 320 321 321 321 321 322 323 324 322 323 324 322 321 321 319 320 324 326 326 325 325 325 326 326 325 324 323 322 322 321 319 317 316
310 311 311 312 311 313 314 315 315 316 317 318 319 320 318 318 321 320 320 319 321 320 321 320 321 322 322 321 321 322 324 325 324 323 325 325 325 325 324 324 324 324 323 322 320 320 320 321 320 319 319 317 317 317
310 310 311 311 313 314 316 317 317 317 318 320 319 318 318 320 318 320 321 322 324 325 322 320 320 322 322 323 324 325 325 325 326 326 325 324 323 322 322 321 318 317 317 317 317 316 317 318 317 318 318 316 316 316
311 311 309 314 315 314 317 320 320 320 318 319 320 319 320 319 320 321 319 320 323 325 325 325 324 323 322 324 325 324 324 324 324 324 323 323 320 320 320 318 318 318 317 317 316 316 314 314 315 316 315 315 314 314
309 310 312 313 314 317 318 318 318 319 320 320 318 318 318 320 320 318 322 319 320 321 324 324 324 324 324 324 324 323 324 324 325 324 322 319 319 317 317 317 317 317 316 316 315 315 314 314 314 315 316 315 314 313
311 312 313 316 316 316 318 319 320 320 320 319 320 321 321 322 320 322 321 320 323 320 323 324 324 322 323 322 318 316 318 318 320 321 319 317 316 316 315 314 314 314 315 315 315 315 316 315 315 315 315 315 315 315
311 313 315 315 316 317 317 318 320 319 319 319 321 321 319 318 321 320 320 321 322 322 321 324 322 320 317 316 316 316 316 316 316 317 317 316 314 313 314 316 315 315 315 314 314 315 316 316 314 312 313 313 313 313
312 314 316 317 317 317 317 320 320 320 320 320 320 320 319 319 320 319 320 320 321 322 322 320 318 316 315 316 318 318 319 319 319 318 316 316 314 313 314 316 315 314 314 313 313 314 314 312 312 311 311 312 312 312
314 315 316 316 315 318 320 320 320 320 320 320 319 319 320 321 321 322 322 322 322 322 320 318 317 318 318 318 318 318 319 315 315 314 314 314 315 314 315 313 312 312 311 309 309 311 311 311 310 311 311 312 312 311
316 315 315 314 317 320 319 319 319 320 320 319 319 320 322 322 322 321 317 319 321 321 321 320 320 320 319 319 319 318 314 313 313 314 315 316 316 315 313 312 312 312 310 310 310 310 310 310 310 310 310 311 311 312
316 316 316 318 320 320 320 320 320 321 319 320 321 322 321 320 322 320 316 317 316 317 318 319 320 317 315 314 314 313 313 311 311 312 311 311 312 313 313 312 311 311 311 310 310 310 310 310 310 309 310 310 310 311
Wind_Speed
17 16 15 15 14 15 15 16 18 19 20 24 20 16 12 11 10 10 7 12 13 5 15 12 12 11 8 3 4 6 4 2 4 3 3 3 2 4 1 3 3 4 4 1 2 3 2 4 4 5 5 1 3 4
16 16 15 15 15 15 16 16 18 19 20 18 19 15 11 11 11 11 6 11 11 9 9 11 15 18 16 9 4 5 4 4 5 4 1 3 2 1 3 2 2 0 5 4 5 5 4 1 2 6 6 8 5 4
16 16 15 15 15 15 16 17 18 19 18 18 18 18 11 11 12 12 11 13 8 9 19 20 18 4 6 5 7 4 3 4 4 4 8 2 2 4 4 5 3 1 4 4 3 3 4 7 8 9 7 7 7 4
17 16 15 15 16 16 16 17 18 18 17 17 18 18 14 11 13 14 12 11 9 4 3 7 3 4 4 8 9 5 11 10 8 5 4 3 2 7 4 3 4 4 7 5 1 4 3 9 11 13 13 6 4 4
18 17 16 16 16 16 17 17 18 17 17 18 18 18 15 11 12 13 12 14 11 4 3 9 8 1 11 13 11 11 9 9 6 3 2 3 3 3 1 2 1 6 6 5 5 16 14 19 13 14 14 11 7 4
21 17 16 16 16 16 17 16 17 16 18 19 19 15 12 10 11 7 4 13 15 10 3 3 3 4 9 15 10 9 10 7 4 3 3 3 3 2 3 2 5 8 11 12 6 20 20 15 14 14 14 13 10 7
20 18 17 17 15 15 17 15 15 14 18 19 16 10 8 9 13 11 4 8 19 12 3 5 6 4 9 18 13 12 9 5 4 4 4 4 3 3 3 3 7 6 7 8 10 22 12 20 16 13 8 10 11 9
19 18 15 15 15 14 15 13 14 14 15 14 9 5 4 7 11 11 6 12 15 10 4 2 4 3 11 6 5 7 4 4 2 2 4 4 5 2 1 9 11 10 11 13 15 20 19 19 16 15 12 13 13 9
15 13 12 13 13 12 12 11 11 9 8 4 2 6 8 6 7 6 8 5 8 8 3 3 3 4 7 5 6 6 4 1 2 2 3 6 1 3 8 12 17 18 18 20 19 15 16 15 15 16 18 16 14 11
11 12 12 11 10 10 9 10 7 4 3 1 1 1 1 4 6 8 7 5 7 8 6 4 3 2 5 5 2 5 2 3 2 4 6 3 4 19 17 18 17 20 19 20 21 17 15 15 18 18 14 13 13 12
11 12 11 9 9 9 7 7 5 3 3 3 2 1 1 7 7 4 4 4 6 2 7 9 9 3 4 3 3 3 3 2 2 5 4 2 4 9 20 22 22 19 19 21 22 18 19 17 17 17 15 13 13 12
12 10 10 10 8 7 6 5 4 5 4 3 3 3 4 4 3 2 3 1 4 6 6 10 18 9 3 2 5 2 1 1 4 3 2 3 5 13 10 12 23 23 19 21 21 17 19 20 19 17 15 16 16 14
12 11 10 8 7 7 5 4 3 5 7 2 1 1 2 3 1 5 5 3 2 4 7 10 3 11 4 4 6 3 2 3 1 2 4 5 9 8 9 10 21 21 19 21 19 16 17 17 15 14 13 14 14 14
11 10 9 9 8 7 6 5 3 7 6 3 3 2 3 3 4 4 3 1 3 6 8 11 9 5 5 4 3 3 3 2 2 2 5 4 13 14 13 16 21 23 24 24 21 20 19 16 14 12 12 12 14 14
10 10 10 8 7 6 6 5 4 11 5 4 4 4 6 10 7 4 8 8 5 6 4 4 6 5 2 4 3 4 3 4 5 5 4 12 17 13 19 22 22 22 24 24 22 23 21 18 16 13 11 11 12 11
11 9 8 8 7 6 5 5 6 12 4 4 5 3 9 4 8 8 8 6 5 5 1 2 3 4 4 5 5 8 6 7 4 5 10 8 9 16 23 24 21 21 23 23 22 23 21 20 19 14 10 14 14 13
10 7 4 4 5 5 5 6 7 5 5 4 6 14 16 11 9 8 6 6 7 4 1 0 2 7 0 4 5 4 6 4 8 9 9 9 8 12 24 25 22 20 23 23 22 23 23 23 20 17 17 19 18 16
9 5 5 4 6 5 6 5 3 4 5 8 6 15 15 16 17 20 17 12 8 5 5 2 2 2 3 3 3 4 10 19 20 12 11 13 9 11 21 23 21 20 21 23 23 23 26 28 28 26 19 20 20 20
8 7 4 5 7 4 2 3 4 4 9 10 16 20 14 12 19 21 7 9 12 9 3 4 4 3 3 2 2 13 13 17 17 16 13 11 13 16 19 20 18 18 20 23 24 28 31 33 34 31 26 25 26 24
8 7 5 7 8 3 3 3 6 5 5 4 8 9 9 12 16 20 24 22 19 5 6 3 3 4 4 3 10 18 17 14 16 15 13 14 16 18 18 18 20 21 22 22 22 22 25 30 37 36 33 30 31 31
10 9 6 6 6 7 4 3 5 6 7 7 9 10 8 15 20 22 16 11 9 5 4 12 22 20 14 12 13 12 11 11 17 17 17 14 14 16 18 19 19 21 23 23 24 25 25 28 31 38 41 39 31 26
8 8 7 7 5 4 6 8 6 6 5 9 10 9 6 6 8 10 16 10 7 16 18 18 16 17 16 18 8 7 4 3 7 7 9 10 13 17 21 18 16 18 19 22 24 23 22 24 26 30 30 33 33 24
9 8 4 5 5 5 6 7 6 5 3 2 6 3 3 4 5 15 7 10 10 10 14 22 22 18 13 21 25 12 16 12 14 13 8 6 6 8 9 9 10 10 12 14 15 14 15 16 18 22 23 27 37 33
5 7 3 5 8 4 5 4 6 4 4 2 2 3 3 3 12 3 3 4 6 13 18 19 21 20 16 14 15 25 21 20 15 13 8 6 5 4 5 7 6 3 2 2 4 7 9 12 14 17 21 26 29 27
2 4 5 5 6 4 4 4 4 2 1 2 2 3 3 3 1 1 1 2 4 5 19 28 24 16 12 14 20 20 15 17 15 12 5 3 3 1 3 3 3 4 3 2 3 3 2 1 1 5 11 10 12 19
4 6 7 4 3 4 3 2 2 1 2 4 5 3 4 2 3 2 2 3 4 8 9 9 9 16 22 18 16 13 9 7 6 3 4 6 6 5 4 5 3 4 4 3 3 4 10 14 11 6 2 2 7 14
2 5 7 7 5 4 3 2 4 2 2 2 1 2 1 1 1 2 1 1 2 5 10 11 9 7 7 9 9 6 4 5 5 6 10 10 10 8 7 7 7 7 8 6 6 4 4 1 5 8 11 12 14 10
5 4 3 2 4 10 3 2 2 2 2 2 1 1 1 0 2 2 3 0 1 7 8 8 9 9 11 9 8 9 11 10 10 10 11 11 9 8 9 9 9 8 6 4 2 2 3 7 10 13 13 12 13 13
5 5 4 6 7 6 11 6 8 9 6 6 2 2 2 2 1 3 7 7 9 11 10 15 16 14 16 18 17 15 14 13 12 10 8 8 8 8 6 3 2 1 1 2 2 3 5 7 8 6 4 5 6 11
5 8 4 3 3 2 2 2 5 6 6 5 3 2 3 1 3 6 13 14 9 6 11 15 17 18 18 15 13 9 6 3 2 3 4 7 8 8 8 5 5 6 4 1 3 3 2 5 8 8 7 6 9 13
3 7 3 4 3 2 7 11 11 6 4 4 6 5 3 1 1 5 8 9 10 10 10 10 12 12 12 12 9 5 3 1 2 3 4 4 14 11 8 6 6 7 4 3 2 4 4 5 4 8 11 11 8 6
5 9 5 2 1 14 11 8 5 5 6 3 4 7 5 5 4 7 8 5 10 12 13 13 11 9 9 10 3 7 5 2 2 1 1 7 10 9 7 7 8 6 4 4 5 6 7 6 6 6 6 8 10 11
7 9 8 3 5 7 7 7 3 2 4 4 3 5 5 3 2 4 4 6 7 7 8 11 13 12 14 13 11 10 12 12 11 8 5 3 3 2 6 12 9 7 7 6 5 5 7 9 9 8 6 3 4 8
Wind_Direction
274 274 276 282 289 295 299 306 313 315 315 313 315 307 287 279 271 260 223 214 219 253 266 266 269 281 310 216 151 166 93 5 53 75 126 201 157 220 107 211 169 171 129 169 90 68 265 166 109 159 209 26 351 14
270 270 273 277 284 294 297 306 311 314 317 322 323 312 286 265 258 256 215 213 207 242 268 266 261 255 261 276 226 141 153 147 158 94 141 122 143 121 167 239 37 233 178 175 161 213 256 192 220 125 112 91 66 32
266 270 271 275 282 289 297 306 314 314 317 321 319 319 291 257 248 248 222 197 232 260 284 271 256 188 226 201 184 135 137 149 153 141 151 158 135 137 161 236 174 230 161 113 91 235 225 169 155 151 136 104 81 43
266 265 267 271 277 289 295 305 314 315 317 317 314 313 297 260 243 243 239 203 208 226 270 269 251 247 174 179 199 188 158 138 147 152 119 136 158 186 201 189 157 189 141 144 272 286 241 202 176 163 157 136 111 87
265 261 264 271 276 286 293 305 313 314 315 314 311 306 293 261 237 240 238 206 197 225 278 294 291 42 190 180 160 149 153 168 175 148 95 218 179 135 48 82 274 184 172 152 210 199 188 192 188 178 177 172 166 135
265 261 266 272 279 289 293 304 312 311 316 314 309 296 281 243 220 221 227 213 201 203 291 319 313 217 156 171 176 163 158 169 193 182 191 193 155 138 106 189 260 253 230 227 210 199 202 184 168 182 185 182 165 156
259 262 263 268 274 284 291 304 311 310 314 315 309 290 270 226 197 186 186 181 185 190 245 299 305 194 171 168 159 157 171 178 192 184 194 165 152 153 106 182 218 200 193 210 207 180 163 180 191 189 206 175 173 172
258 259 253 260 271 283 291 304 306 312 319 317 306 275 229 198 194 206 127 148 165 178 232 240 269 317 167 152 136 169 177 183 200 186 153 161 136 82 237 237 195 173 171 169 178 187 200 195 195 205 202 187 187 200
260 253 252 258 271 281 292 301 297 315 329 337 95 125 122 154 165 173 185 205 214 221 267 195 182 221 168 146 148 154 163 59 270 164 222 146 8 206 223 203 198 203 198 195 184 191 186 197 199 203 197 197 202 209
241 240 249 256 270 278 286 296 288 302 297 237 128 319 189 155 148 147 163 171 186 211 235 232 231 239 171 160 103 125 114 182 160 245 137 143 243 235 226 218 228 212 207 200 183 179 181 183 183 182 195 211 223 227
238 238 245 254 263 272 278 298 271 238 201 225 287 298 59 149 147 183 195 183 190 229 213 229 217 167 165 127 166 141 176 138 125 258 144 258 273 241 250 235 220 209 208 203 204 211 210 212 191 193 199 207 215 223
236 227 237 242 251 261 275 306 244 211 194 218 286 309 147 190 194 180 203 206 182 212 204 193 214 207 139 124 95 43 156 61 218 151 103 266 255 240 220 219 203 198 201 200 205 212 211 210 209 212 224 228 234 229
219 227 230 239 245 252 271 280 251 212 197 230 235 303 332 181 65 201 196 235 212 219 190 171 168 169 127 95 71 76 95 222 94 108 221 225 235 225 198 210 189 191 198 201 208 209 200 195 200 215 231 231 225 210
219 230 229 237 245 253 265 246 252 196 179 218 182 302 216 227 245 201 183 238 318 322 328 205 155 147 132 89 140 119 230 46 280 231 231 235 234 219 196 188 187 193 199 204 205 201 204 212 219 231 238 240 224 217
225 227 227 235 248 246 237 234 228 190 190 209 186 231 215 241 268 261 311 309 313 327 327 143 174 151 131 118 189 129 181 217 207 223 226 238 233 218 196 191 197 203 204 207 212 213 213 218 224 227 237 222 208 214
221 221 234 232 241 230 244 242 203 180 214 228 226 249 253 280 281 269 275 272 269 321 190 194 135 143 211 176 155 201 179 195 220 218 252 267 236 223 205 198 200 205 213 220 220 221 224 226 228 233 226 202 206 212
200 208 209 207 204 206 174 170 163 202 221 225 242 239 255 275 268 268 271 259 322 302 313 72 194 214 166 187 208 172 179 203 219 226 267 266 251 235 204 200 202 209 221 226 227 227 232 236 226 218 214 209 208 213
196 193 197 194 170 155 166 172 204 230 243 231 226 247 240 248 261 268 278 277 238 186 182 222 317 277 241 215 197 204 210 223 243 243 260 254 233 191 198 201 206 216 228 233 237 241 238 232 225 226 228 216 211 210
193 193 186 179 178 166 178 219 226 262 246 242 248 253 255 261 256 245 278 282 241 213 203 203 233 209 223 211 309 342 284 243 241 234 216 196 189 186 194 207 216 226 235 242 247 248 245 242 241 238 233 217 215 215
182 170 177 185 187 195 240 225 204 252 258 252 247 238 237 250 245 232 233 243 245 228 204 222 224 222 191 287 330 320 306 256 211 180 185 193 193 199 208 220 233 240 245 250 258 260 257 249 237 237 236 230 221 221
214 219 204 208 213 221 276 259 238 242 269 253 274 233 225 234 236 231 237 263 189 222 217 217 226 242 262 273 298 292 293 209 212 193 196 202 206 219 230 239 250 255 257 262 265 265 262 260 254 240 234 227 220 228
207 204 200 202 215 236 248 237 237 278 257 261 280 253 229 199 210 212 196 182 211 238 230 216 213 210 225 227 303 268 342 226 223 200 199 221 241 248 244 250 273 273 268 268 271 270 266 260 253 249 245 235 220 215
164 176 194 195 208 220 259 231 233 236 231 297 287 246 236 223 214 161 188 205 223 274 234 215 214 203 199 191 207 295 268 275 269 262 252 252 246 254 263 271 283 294 291 285 271 269 267 272 270 268 264 254 231 204
173 176 219 211 199 250 241 234 222 247 245 249 274 294 280 251 164 209 233 208 204 217 227 212 175 164 145 165 211 224 237 269 260 250 264 266 256 254 287 300 306 307 333 332 301 282 276 275 271 258 243 235 217 205
177 213 227 249 209 231 233 225 204 230 228 160 258 280 265 289 218 336 331 325 359 187 211 209 203 211 218 222 222 237 248 249 250 242 247 263 273 226 156 142 101 79 35 19 315 297 57 6 303 238 194 174 196 201
239 208 195 224 223 205 250 339 3 302 275 209 234 291 349 42 13 349 280 33 79 107 126 154 202 218 230 238 226 216 217 207 196 169 137 116 99 87 106 129 79 90 78 58 36 132 134 128 125 100 57 332 260 235
243 249 228 236 266 300 348 307 280 247 268 293 320 334 336 155 259 266 347 20 141 113 118 126 141 155 172 171 147 137 136 129 118 107 120 112 111 102 89 87 89 72 69 79 86 98 133 188 285 292 289 286 311 291
256 277 227 198 237 217 209 244 265 3 290 274 281 247 149 347 221 8 50 120 118 176 151 128 127 127 127 118 119 116 113 105 109 125 128 127 125 122 105 113 113 105 95 86 85 28 343 324 324 318 306 304 306 285
238 231 250 265 256 210 210 209 195 206 202 163 177 239 218 225 271 83 109 107 117 132 135 139 132 131 129 125 118 115 106 106 111 125 143 148 152 155 148 183 202 183 148 152 223 257 297 306 310 331 314 303 295 284
250 204 221 252 243 272 326 207 174 163 153 154 160 192 236 173 101 135 133 137 167 141 135 138 139 135 140 135 128 131 136 133 172 218 261 240 200 185 200 243 226 201 201 240 290 292 263 294 301 307 313 313 316 295
262 186 231 246 267 324 139 123 122 101 72 76 96 105 110 122 224 138 161 171 168 174 169 154 153 155 155 162 166 170 175 184 202 241 273 227 187 201 211 212 199 177 159 106 139 190 228 249 278 301 301 299 302 321
216 206 211 235 124 143 130 59 40 18 23 66 45 37 60 77 85 69 66 152 185 194 192 191 194 204 220 242 216 141 165 204 204 83 173 189 195 214 225 224 189 176 183 206 234 259 260 253 258 267 290 294 298 294
214 228 261 171 137 181 166 122 179 83 360 359 11 27 40 31 42 41 73 129 134 147 161 176 184 157 146 142 127 95 73 66 63 47 17 274 247 240 225 191 197 219 228 239 239 256 266 250 251 274 278 283 303 289